| time (UTC) | temp F | wind direction | speed MPH | gust MPH | rain 1hr in | rain 24hr in | rain mn in | humidity % | barometer mb |
| 20260506091552 | 39 | 0 | 0.0 | 0.0 | 0.00 | 0.00 | 0.00 | 87 | 1019.5 |
| 20260506091506 | 39 | 277 | 0.0 | 0.0 | 0.00 | 0.00 | 0.00 | 87 | 1019.6 |
| 20260506091003 | 40 | 277 | 0.0 | 0.0 | 0.00 | 0.00 | 0.00 | 87 | 1019.7 |
| 20260506090502 | 40 | 277 | 0.0 | 0.0 | 0.00 | 0.00 | 0.00 | 86 | 1019.6 |
| 20260506090101 | 40 | 0 | 0.0 | 0.0 | 0.00 | 0.00 | 0.00 | 86 | 1019.5 |
| 20260506090027 | 40 | 277 | 0.0 | 0.0 | 0.00 | 0.00 | 0.00 | 86 | 1019.6 |
| 20260506085503 | 40 | 277 | 0.0 | 0.0 | 0.00 | 0.00 | 0.00 | 86 | 1019.6 |
| 20260506085003 | 40 | 277 | 0.0 | 0.0 | 0.00 | 0.00 | 0.00 | 85 | 1019.6 |
| 20260506084557 | 40 | 0 | 0.0 | 0.0 | 0.00 | 0.00 | 0.00 | 85 | 1019.5 |
| 20260506084517 | 40 | 277 | 0.0 | 0.0 | 0.00 | 0.00 | 0.00 | 85 | 1019.6 |
| 20260506083507 | 41 | 277 | 0.0 | 0.0 | 0.00 | 0.00 | 0.00 | 84 | 1019.6 |
| 20260506083047 | 41 | 0 | 0.0 | 0.0 | 0.00 | 0.00 | 0.00 | 84 | 1019.5 |
| 20260506083019 | 41 | 277 | 0.0 | 0.0 | 0.00 | 0.00 | 0.00 | 85 | 1019.6 |
| 20260506082505 | 41 | 277 | 0.0 | 0.0 | 0.00 | 0.00 | 0.00 | 84 | 1019.6 |
| 20260506082002 | 41 | 277 | 0.0 | 0.0 | 0.00 | 0.00 | 0.00 | 85 | 1019.6 |
| 20260506081600 | 41 | 0 | 0.0 | 0.0 | 0.00 | 0.00 | 0.00 | 85 | 1019.5 |
| 20260506081503 | 41 | 277 | 0.0 | 0.0 | 0.00 | 0.00 | 0.00 | 85 | 1019.6 |
| 20260506081009 | 41 | 277 | 0.0 | 0.0 | 0.00 | 0.00 | 0.00 | 83 | 1019.6 |
| 20260506080504 | 42 | 277 | 0.0 | 0.0 | 0.00 | 0.00 | 0.00 | 82 | 1019.5 |
| 20260506073510 | 43 | 277 | 0.0 | 0.0 | 0.00 | 0.00 | 0.00 | 81 | 1018.9 |
| 20260506073054 | 43 | 0 | 0.0 | 0.0 | 0.00 | 0.00 | 0.00 | 81 | 1018.7 |
| 20260506073004 | 44 | 277 | 0.0 | 0.0 | 0.00 | 0.00 | 0.00 | 81 | 1018.8 |
| 20260506072502 | 44 | 277 | 0.0 | 0.0 | 0.00 | 0.00 | 0.00 | 81 | 1018.8 |
| 20260506072003 | 44 | 277 | 0.0 | 0.0 | 0.00 | 0.00 | 0.00 | 80 | 1018.7 |
| 20260506071549 | 44 | 0 | 0.0 | 0.0 | 0.00 | 0.00 | 0.00 | 80 | 1018.6 |
| 20260506071507 | 44 | 277 | 0.0 | 0.0 | 0.00 | 0.00 | 0.00 | 80 | 1018.7 |
| 20260506071002 | 45 | 277 | 0.0 | 0.0 | 0.00 | 0.00 | 0.00 | 79 | 1018.7 |
| 20260506070502 | 45 | 277 | 0.0 | 1.0 | 0.00 | 0.00 | 0.00 | 78 | 1018.7 |
| 20260506061551 | 49 | 0 | 0.0 | 0.0 | 0.00 | 0.00 | 0.00 | 75 | 1018.3 |
| 20260506061523 | 49 | 277 | 0.0 | 0.0 | 0.00 | 0.00 | 0.00 | 75 | 1018.3 |
| 20260506061004 | 50 | 277 | 0.0 | 0.0 | 0.00 | 0.00 | 0.00 | 75 | 1018.2 |
| 20260506060506 | 50 | 277 | 0.0 | 0.0 | 0.00 | 0.00 | 0.00 | 74 | 1018.2 |
| 20260506050115 | 55 | 0 | 0.0 | 2.0 | 0.00 | 0.00 | 0.00 | 65 | 1017.6 |
| 20260506045003 | 57 | 277 | 0.0 | 2.0 | 0.00 | 0.00 | 0.00 | 63 | 1017.6 |
| 20260506044553 | 58 | 0 | 0.0 | 0.0 | 0.00 | 0.00 | 0.00 | 62 | 1017.5 |
| 20260506044506 | 58 | 277 | 0.0 | 0.0 | 0.00 | 0.00 | 0.00 | 62 | 1017.6 |
| 20260506044002 | 58 | 277 | 0.0 | 0.0 | 0.00 | 0.00 | 0.00 | 62 | 1017.6 |
| 20260506043057 | 59 | 0 | 1.0 | 3.0 | 0.00 | 0.00 | 0.00 | 61 | 1017.5 |
| 20260506043012 | 59 | 277 | 0.0 | 3.0 | 0.00 | 0.00 | 0.00 | 61 | 1017.5 |
| 20260506042503 | 59 | 238 | 0.0 | 3.0 | 0.00 | 0.00 | 0.00 | 61 | 1017.5 |
| 20260506041601 | 59 | 191 | 1.0 | 4.0 | 0.00 | 0.00 | 0.00 | 58 | 1017.3 |
| 20260506041511 | 59 | 190 | 1.0 | 4.0 | 0.00 | 0.00 | 0.00 | 58 | 1017.4 |
| 20260506041003 | 59 | 275 | 1.0 | 4.0 | 0.00 | 0.00 | 0.00 | 55 | 1017.4 |
| 20260506040051 | 60 | 0 | 0.0 | 6.0 | 0.00 | 0.00 | 0.00 | 48 | 1017.3 |
| 20260506035507 | 61 | 262 | 0.0 | 6.0 | 0.00 | 0.00 | 0.00 | 46 | 1017.3 |
| 20260506035009 | 61 | 293 | 0.0 | 2.0 | 0.00 | 0.00 | 0.00 | 44 | 1017.2 |
| 20260506034552 | 62 | 0 | 0.0 | 2.0 | 0.00 | 0.00 | 0.00 | 42 | 1017.1 |
| 20260506034522 | 62 | 293 | 0.0 | 2.0 | 0.00 | 0.00 | 0.00 | 42 | 1017.1 |
| 20260506034007 | 63 | 298 | 0.0 | 3.0 | 0.00 | 0.00 | 0.00 | 40 | 1017.0 |
| 20260506033052 | 64 | 300 | 0.0 | 3.0 | 0.00 | 0.00 | 0.00 | 38 | 1016.8 |
| 20260506032003 | 65 | 295 | 0.0 | 7.0 | 0.00 | 0.00 | 0.00 | 36 | 1016.8 |
| 20260506031549 | 65 | 0 | 2.0 | 7.0 | 0.00 | 0.00 | 0.00 | 35 | 1016.6 |
| 20260506031003 | 66 | 5 | 2.0 | 8.0 | 0.00 | 0.00 | 0.00 | 34 | 1016.6 |
| 20260506030505 | 66 | 255 | 1.0 | 9.0 | 0.00 | 0.00 | 0.00 | 34 | 1016.5 |
| 20260506030050 | 66 | 313 | 2.0 | 10.0 | 0.00 | 0.00 | 0.00 | 34 | 1016.5 |
| 20260506025507 | 66 | 292 | 3.0 | 10.0 | 0.00 | 0.00 | 0.00 | 33 | 1016.3 |
| 20260506024548 | 67 | 323 | 2.0 | 10.0 | 0.00 | 0.00 | 0.00 | 36 | 1016.3 |
| 20260506024534 | 67 | 323 | 2.0 | 10.0 | 0.00 | 0.00 | 0.00 | 35 | 1016.2 |
| 20260506024009 | 67 | 315 | 2.0 | 7.0 | 0.00 | 0.00 | 0.00 | 36 | 1016.1 |
| 20260506023508 | 67 | 282 | 1.0 | 7.0 | 0.00 | 0.00 | 0.00 | 37 | 1016.1 |
| 20260506023107 | 67 | 244 | 2.0 | 5.0 | 0.00 | 0.00 | 0.00 | 36 | 1016.1 |
| 20260506023024 | 67 | 317 | 2.0 | 5.0 | 0.00 | 0.00 | 0.00 | 36 | 1016.0 |
| 20260506022506 | 67 | 332 | 2.0 | 8.0 | 0.00 | 0.00 | 0.00 | 37 | 1016.0 |
| 20260506022008 | 68 | 355 | 1.0 | 8.0 | 0.00 | 0.00 | 0.00 | 37 | 1015.9 |
| 20260506021552 | 68 | 0 | 1.0 | 11.0 | 0.00 | 0.00 | 0.00 | 37 | 1016.0 |
| 20260506020503 | 68 | 279 | 2.0 | 8.0 | 0.00 | 0.00 | 0.00 | 38 | 1015.8 |
| 20260506020053 | 68 | 304 | 3.0 | 8.0 | 0.00 | 0.00 | 0.00 | 38 | 1015.9 |
| 20260506015506 | 69 | 302 | 2.0 | 10.0 | 0.00 | 0.00 | 0.00 | 38 | 1015.8 |
| 20260506015007 | 69 | 302 | 4.0 | 11.0 | 0.00 | 0.00 | 0.00 | 37 | 1015.7 |
| 20260506014554 | 69 | 331 | 5.0 | 11.0 | 0.00 | 0.00 | 0.00 | 37 | 1015.8 |
| 20260506013505 | 69 | 302 | 2.0 | 12.0 | 0.00 | 0.00 | 0.00 | 40 | 1015.7 |
| 20260506013054 | 69 | 5 | 3.0 | 12.0 | 0.00 | 0.00 | 0.00 | 40 | 1015.7 |
| 20260506013027 | 69 | 282 | 3.0 | 12.0 | 0.00 | 0.00 | 0.00 | 40 | 1015.6 |
| 20260506012511 | 70 | 11 | 4.0 | 12.0 | 0.00 | 0.00 | 0.00 | 40 | 1015.5 |
| 20260506012009 | 70 | 302 | 5.0 | 12.0 | 0.00 | 0.00 | 0.00 | 39 | 1015.4 |
| 20260506011555 | 70 | 308 | 3.0 | 8.0 | 0.00 | 0.00 | 0.00 | 39 | 1015.3 |
| 20260506011552 | 70 | 269 | 3.0 | 8.0 | 0.00 | 0.00 | 0.00 | 39 | 1015.5 |
| 20260506011006 | 70 | 324 | 4.0 | 9.0 | 0.00 | 0.00 | 0.00 | 39 | 1015.3 |
| 20260506010514 | 70 | 46 | 3.0 | 12.0 | 0.00 | 0.00 | 0.00 | 38 | 1015.2 |
| 20260506010049 | 70 | 299 | 4.0 | 12.0 | 0.00 | 0.00 | 0.00 | 36 | 1015.3 |
| 20260506010011 | 70 | 317 | 5.0 | 12.0 | 0.00 | 0.00 | 0.00 | 36 | 1015.2 |
| 20260506005504 | 70 | 267 | 5.0 | 14.0 | 0.00 | 0.00 | 0.00 | 37 | 1015.3 |
| 20260506004548 | 71 | 336 | 4.0 | 14.0 | 0.00 | 0.00 | 0.00 | 37 | 1015.1 |
| 20260506004010 | 72 | 259 | 7.0 | 14.0 | 0.00 | 0.00 | 0.00 | 36 | 1015.0 |
| 20260506003507 | 73 | 46 | 4.0 | 11.0 | 0.00 | 0.00 | 0.00 | 36 | 1014.8 |
| 20260506003053 | 72 | 234 | 5.0 | 10.0 | 0.00 | 0.00 | 0.00 | 37 | 1014.9 |
| 20260506003020 | 72 | 268 | 5.0 | 10.0 | 0.00 | 0.00 | 0.00 | 37 | 1014.8 |
| 20260506002514 | 71 | 340 | 3.0 | 9.0 | 0.00 | 0.00 | 0.00 | 36 | 1014.8 |
| 20260506002009 | 71 | 339 | 3.0 | 9.0 | 0.00 | 0.00 | 0.00 | 36 | 1014.8 |
| 20260506001557 | 72 | 342 | 3.0 | 9.0 | 0.00 | 0.00 | 0.00 | 35 | 1014.9 |
| 20260506001525 | 72 | 288 | 2.0 | 9.0 | 0.00 | 0.00 | 0.00 | 35 | 1014.8 |
| 20260506001010 | 72 | 305 | 3.0 | 7.0 | 0.00 | 0.00 | 0.00 | 37 | 1014.7 |
| 20260506000511 | 72 | 292 | 2.0 | 7.0 | 0.00 | 0.00 | 0.00 | 37 | 1014.7 |
| 20260506000104 | 71 | 5 | 2.0 | 6.0 | 0.00 | 0.00 | 0.00 | 38 | 1014.8 |
| 20260506000044 | 71 | 286 | 3.0 | 6.0 | 0.00 | 0.00 | 0.00 | 38 | 1014.7 |
| 20260505235507 | 71 | 261 | 2.0 | 7.0 | 0.00 | 0.00 | 0.00 | 40 | 1014.7 |
| 20260505235008 | 71 | 305 | 2.0 | 7.0 | 0.00 | 0.00 | 0.00 | 38 | 1014.7 |
| 20260505234549 | 71 | 313 | 2.0 | 5.0 | 0.00 | 0.00 | 0.00 | 37 | 1014.8 |
| 20260505234538 | 71 | 315 | 1.0 | 5.0 | 0.00 | 0.00 | 0.00 | 37 | 1014.8 |
| 20260505234007 | 71 | 287 | 2.0 | 5.0 | 0.00 | 0.00 | 0.00 | 35 | 1014.8 |
| 20260505233505 | 71 | 328 | 1.0 | 10.0 | 0.00 | 0.00 | 0.00 | 36 | 1014.7 |
| 20260505233053 | 72 | 326 | 2.0 | 10.0 | 0.00 | 0.00 | 0.00 | 35 | 1014.8 |
| 20260505232512 | 72 | 271 | 6.0 | 10.0 | 0.00 | 0.00 | 0.00 | 34 | 1014.7 |
| 20260505231547 | 72 | 24 | 3.0 | 8.0 | 0.00 | 0.00 | 0.00 | 37 | 1014.7 |
| 20260505231006 | 72 | 19 | 1.0 | 7.0 | 0.00 | 0.00 | 0.00 | 34 | 1014.7 |
| 20260505230510 | 72 | 305 | 2.0 | 7.0 | 0.00 | 0.00 | 0.00 | 34 | 1014.7 |
| 20260505230118 | 73 | 315 | 1.0 | 6.0 | 0.00 | 0.00 | 0.00 | 34 | 1014.7 |
| 20260505230046 | 73 | 315 | 1.0 | 6.0 | 0.00 | 0.00 | 0.00 | 34 | 1014.7 |
| 20260505225515 | 74 | 328 | 2.0 | 7.0 | 0.00 | 0.00 | 0.00 | 36 | 1014.7 |
| 20260505225011 | 75 | 311 | 2.0 | 10.0 | 0.00 | 0.00 | 0.00 | 34 | 1014.7 |
| 20260505224549 | 76 | 294 | 3.0 | 14.0 | 0.00 | 0.00 | 0.00 | 35 | 1014.7 |
| 20260505224004 | 74 | 232 | 4.0 | 14.0 | 0.00 | 0.00 | 0.00 | 36 | 1014.6 |
| 20260505223503 | 73 | 340 | 2.0 | 14.0 | 0.00 | 0.00 | 0.00 | 36 | 1014.7 |
| 20260505223051 | 72 | 257 | 2.0 | 9.0 | 0.00 | 0.00 | 0.00 | 36 | 1014.8 |
| 20260505223016 | 72 | 300 | 2.0 | 6.0 | 0.00 | 0.00 | 0.00 | 35 | 1014.7 |
| 20260505222508 | 71 | 302 | 1.0 | 9.0 | 0.00 | 0.00 | 0.00 | 35 | 1014.8 |
| 20260505222006 | 72 | 22 | 3.0 | 13.0 | 0.00 | 0.00 | 0.00 | 36 | 1014.9 |
| 20260505221555 | 72 | 360 | 2.0 | 13.0 | 0.00 | 0.00 | 0.00 | 36 | 1014.9 |
| 20260505221512 | 72 | 360 | 2.0 | 13.0 | 0.00 | 0.00 | 0.00 | 35 | 1014.8 |
| 20260505221004 | 72 | 88 | 2.0 | 9.0 | 0.00 | 0.00 | 0.00 | 34 | 1014.8 |
| 20260505220503 | 72 | 88 | 3.0 | 7.0 | 0.00 | 0.00 | 0.00 | 35 | 1014.9 |
| 20260505220056 | 73 | 332 | 2.0 | 7.0 | 0.00 | 0.00 | 0.00 | 36 | 1014.9 |
| 20260505220005 | 73 | 297 | 2.0 | 7.0 | 0.00 | 0.00 | 0.00 | 36 | 1014.9 |
| 20260505215503 | 73 | 49 | 2.0 | 7.0 | 0.00 | 0.00 | 0.00 | 34 | 1014.9 |
| 20260505215006 | 74 | 323 | 2.0 | 5.0 | 0.00 | 0.00 | 0.00 | 34 | 1014.8 |
| 20260505214549 | 73 | 266 | 2.0 | 11.0 | 0.00 | 0.00 | 0.00 | 33 | 1014.9 |
| 20260505214003 | 74 | 20 | 1.0 | 14.0 | 0.00 | 0.00 | 0.00 | 34 | 1015.0 |
| 20260505213508 | 74 | 289 | 2.0 | 14.0 | 0.00 | 0.00 | 0.00 | 33 | 1015.0 |
| 20260505213049 | 75 | 296 | 3.0 | 13.0 | 0.00 | 0.00 | 0.00 | 34 | 1014.9 |
| 20260505212504 | 75 | 46 | 4.0 | 11.0 | 0.00 | 0.00 | 0.00 | 35 | 1015.0 |
| 20260505212008 | 74 | 94 | 1.0 | 12.0 | 0.00 | 0.00 | 0.00 | 33 | 1015.0 |
| 20260505211559 | 74 | 88 | 3.0 | 12.0 | 0.00 | 0.00 | 0.00 | 34 | 1014.9 |
| 20260505211522 | 74 | 34 | 3.0 | 12.0 | 0.00 | 0.00 | 0.00 | 34 | 1015.0 |
| 20260505211005 | 74 | 65 | 3.0 | 10.0 | 0.00 | 0.00 | 0.00 | 33 | 1015.1 |
| 20260505210504 | 75 | 34 | 3.0 | 9.0 | 0.00 | 0.00 | 0.00 | 31 | 1015.0 |
| 20260505210056 | 74 | 38 | 3.0 | 10.0 | 0.00 | 0.00 | 0.00 | 35 | 1014.9 |
| 20260505210014 | 74 | 181 | 3.0 | 10.0 | 0.00 | 0.00 | 0.00 | 33 | 1015.1 |
| 20260505205504 | 74 | 82 | 5.0 | 10.0 | 0.00 | 0.00 | 0.00 | 34 | 1015.3 |
| 20260505205003 | 73 | 277 | 2.0 | 12.0 | 0.00 | 0.00 | 0.00 | 35 | 1015.3 |
| 20260505204547 | 73 | 27 | 4.0 | 12.0 | 0.00 | 0.00 | 0.00 | 33 | 1014.9 |
| 20260505204508 | 73 | 52 | 3.0 | 12.0 | 0.00 | 0.00 | 0.00 | 32 | 1015.3 |
| 20260505204003 | 74 | 48 | 3.0 | 12.0 | 0.00 | 0.00 | 0.00 | 34 | 1015.3 |
| 20260505203503 | 73 | 352 | 2.0 | 12.0 | 0.00 | 0.00 | 0.00 | 34 | 1015.3 |
| 20260505203051 | 72 | 305 | 3.0 | 12.0 | 0.00 | 0.00 | 0.00 | 34 | 1015.0 |
| 20260505202005 | 72 | 29 | 3.0 | 12.0 | 0.00 | 0.00 | 0.00 | 33 | 1015.2 |
| 20260505201552 | 73 | 78 | 4.0 | 11.0 | 0.00 | 0.00 | 0.00 | 32 | 1015.0 |
| 20260505201004 | 72 | 67 | 2.0 | 11.0 | 0.00 | 0.00 | 0.00 | 33 | 1015.3 |
| 20260505200503 | 73 | 342 | 3.0 | 13.0 | 0.00 | 0.00 | 0.00 | 34 | 1015.3 |
| 20260505200108 | 72 | 72 | 4.0 | 13.0 | 0.00 | 0.00 | 0.00 | 35 | 1015.1 |
| 20260505200022 | 72 | 44 | 5.0 | 13.0 | 0.00 | 0.00 | 0.00 | 36 | 1015.3 |
| 20260505195505 | 72 | 86 | 6.0 | 11.0 | 0.00 | 0.00 | 0.00 | 35 | 1015.3 |
| 20260505195007 | 72 | 55 | 1.0 | 8.0 | 0.00 | 0.00 | 0.00 | 32 | 1015.3 |
| 20260505194549 | 72 | 66 | 2.0 | 9.0 | 0.00 | 0.00 | 0.00 | 35 | 1015.1 |
| 20260505194526 | 72 | 32 | 2.0 | 9.0 | 0.00 | 0.00 | 0.00 | 36 | 1015.3 |
| 20260505194004 | 72 | 308 | 2.0 | 17.0 | 0.00 | 0.00 | 0.00 | 36 | 1015.3 |
| 20260505193509 | 72 | 46 | 2.0 | 17.0 | 0.00 | 0.00 | 0.00 | 35 | 1015.3 |
| 20260505193104 | 72 | 50 | 4.0 | 10.0 | 0.00 | 0.00 | 0.00 | 35 | 1015.1 |
| 20260505193023 | 72 | 34 | 4.0 | 10.0 | 0.00 | 0.00 | 0.00 | 34 | 1015.3 |
| 20260505192504 | 72 | 51 | 4.0 | 10.0 | 0.00 | 0.00 | 0.00 | 36 | 1015.3 |
| 20260505192003 | 71 | 352 | 2.0 | 14.0 | 0.00 | 0.00 | 0.00 | 37 | 1015.3 |
| 20260505191607 | 71 | 302 | 4.0 | 14.0 | 0.00 | 0.00 | 0.00 | 37 | 1015.3 |
| 20260505191005 | 71 | 346 | 5.0 | 9.0 | 0.00 | 0.00 | 0.00 | 36 | 1015.3 |
| 20260505190505 | 71 | 355 | 2.0 | 9.0 | 0.00 | 0.00 | 0.00 | 39 | 1015.4 |
| 20260505190056 | 71 | 18 | 4.0 | 11.0 | 0.00 | 0.00 | 0.00 | 38 | 1015.4 |
| 20260505190019 | 71 | 350 | 4.0 | 11.0 | 0.00 | 0.00 | 0.00 | 38 | 1015.3 |
| 20260505185509 | 71 | 338 | 2.0 | 11.0 | 0.00 | 0.00 | 0.00 | 39 | 1015.3 |
| 20260505185007 | 70 | 296 | 3.0 | 10.0 | 0.00 | 0.00 | 0.00 | 41 | 1015.2 |
| 20260505184557 | 70 | 305 | 3.0 | 10.0 | 0.00 | 0.00 | 0.00 | 41 | 1015.4 |
| 20260505184521 | 70 | 57 | 3.0 | 10.0 | 0.00 | 0.00 | 0.00 | 40 | 1015.3 |
| 20260505184006 | 70 | 42 | 3.0 | 10.0 | 0.00 | 0.00 | 0.00 | 39 | 1015.3 |
| 20260505183508 | 70 | 297 | 3.0 | 10.0 | 0.00 | 0.00 | 0.00 | 41 | 1015.3 |
| 20260505183053 | 70 | 16 | 2.0 | 9.0 | 0.00 | 0.00 | 0.00 | 41 | 1015.4 |
| 20260505183019 | 69 | 82 | 3.0 | 9.0 | 0.00 | 0.00 | 0.00 | 40 | 1015.3 |
| 20260505182507 | 69 | 86 | 4.0 | 10.0 | 0.00 | 0.00 | 0.00 | 42 | 1015.3 |
| 20260505182009 | 68 | 292 | 2.0 | 10.0 | 0.00 | 0.00 | 0.00 | 40 | 1015.3 |
| 20260505181557 | 68 | 54 | 3.0 | 10.0 | 0.00 | 0.00 | 0.00 | 41 | 1015.4 |
| 20260505181511 | 68 | 57 | 3.0 | 10.0 | 0.00 | 0.00 | 0.00 | 43 | 1015.2 |
| 20260505181003 | 68 | 50 | 2.0 | 8.0 | 0.00 | 0.00 | 0.00 | 41 | 1015.3 |
| 20260505180504 | 67 | 295 | 2.0 | 8.0 | 0.00 | 0.00 | 0.00 | 41 | 1015.3 |
| 20260505180054 | 67 | 242 | 2.0 | 7.0 | 0.00 | 0.00 | 0.00 | 41 | 1015.4 |
| 20260505180014 | 67 | 239 | 2.0 | 7.0 | 0.00 | 0.00 | 0.00 | 42 | 1015.3 |
| 20260505175506 | 67 | 50 | 2.0 | 7.0 | 0.00 | 0.00 | 0.00 | 43 | 1015.3 |
| 20260505175005 | 66 | 51 | 1.0 | 6.0 | 0.00 | 0.00 | 0.00 | 44 | 1015.4 |
| 20260505174554 | 66 | 44 | 2.0 | 7.0 | 0.00 | 0.00 | 0.00 | 42 | 1015.5 |
| 20260505174521 | 66 | 23 | 2.0 | 6.0 | 0.00 | 0.00 | 0.00 | 44 | 1015.4 |
| 20260505174006 | 65 | 329 | 2.0 | 7.0 | 0.00 | 0.00 | 0.00 | 43 | 1015.4 |
| 20260505173510 | 65 | 53 | 1.0 | 7.0 | 0.00 | 0.00 | 0.00 | 44 | 1015.4 |
| 20260505173054 | 64 | 312 | 2.0 | 5.0 | 0.00 | 0.00 | 0.00 | 45 | 1015.5 |
| 20260505173025 | 64 | 340 | 2.0 | 5.0 | 0.00 | 0.00 | 0.00 | 46 | 1015.4 |
| 20260505172506 | 64 | 66 | 1.0 | 6.0 | 0.00 | 0.00 | 0.00 | 46 | 1015.4 |
| 20260505172008 | 63 | 321 | 3.0 | 6.0 | 0.00 | 0.00 | 0.00 | 49 | 1015.4 |
| 20260505171553 | 62 | 36 | 2.0 | 7.0 | 0.00 | 0.00 | 0.00 | 47 | 1015.4 |
| 20260505171522 | 62 | 76 | 3.0 | 7.0 | 0.00 | 0.00 | 0.00 | 47 | 1015.4 |
| 20260505171010 | 62 | 321 | 1.0 | 7.0 | 0.00 | 0.00 | 0.00 | 50 | 1015.3 |
| 20260505170508 | 61 | 321 | 3.0 | 7.0 | 0.00 | 0.00 | 0.00 | 50 | 1015.4 |
| 20260505170053 | 61 | 350 | 2.0 | 5.0 | 0.00 | 0.00 | 0.00 | 52 | 1015.5 |
| 20260505170024 | 61 | 312 | 2.0 | 5.0 | 0.00 | 0.00 | 0.00 | 50 | 1015.4 |
| 20260505165504 | 61 | 13 | 1.0 | 3.0 | 0.00 | 0.00 | 0.00 | 52 | 1015.4 |
| 20260505165003 | 61 | 243 | 1.0 | 4.0 | 0.00 | 0.00 | 0.00 | 58 | 1015.5 |
| 20260505164550 | 60 | 246 | 2.0 | 4.0 | 0.00 | 0.00 | 0.00 | 55 | 1015.5 |
| 20260505164518 | 60 | 285 | 2.0 | 4.0 | 0.00 | 0.00 | 0.00 | 55 | 1015.5 |
| 20260505164005 | 59 | 278 | 2.0 | 4.0 | 0.00 | 0.00 | 0.00 | 56 | 1015.6 |
| 20260505163505 | 59 | 41 | 2.0 | 4.0 | 0.00 | 0.00 | 0.00 | 60 | 1015.7 |
| 20260505163051 | 58 | 0 | 1.0 | 3.0 | 0.00 | 0.00 | 0.00 | 60 | 1015.5 |
| 20260505163021 | 58 | 11 | 1.0 | 3.0 | 0.00 | 0.00 | 0.00 | 61 | 1015.8 |
| 20260505162506 | 58 | 209 | 1.0 | 2.0 | 0.00 | 0.00 | 0.00 | 64 | 1015.8 |
| 20260505162015 | 57 | 226 | 1.0 | 2.0 | 0.00 | 0.00 | 0.00 | 64 | 1015.9 |
| 20260505161549 | 56 | 0 | 0.0 | 4.0 | 0.00 | 0.00 | 0.00 | 67 | 1015.6 |
| 20260505161525 | 56 | 225 | 0.0 | 4.0 | 0.00 | 0.00 | 0.00 | 66 | 1015.9 |
| 20260505161008 | 55 | 225 | 1.0 | 4.0 | 0.00 | 0.00 | 0.00 | 69 | 1015.9 |
| 20260505160507 | 54 | 207 | 1.0 | 5.0 | 0.00 | 0.00 | 0.00 | 70 | 1015.9 |
| 20260505153052 | 49 | 352 | 1.0 | 2.0 | 0.00 | 0.00 | 0.00 | 80 | 1015.8 |
| 20260505153019 | 49 | 60 | 1.0 | 2.0 | 0.00 | 0.00 | 0.00 | 80 | 1016.0 |
| 20260505152505 | 48 | 111 | 1.0 | 2.0 | 0.00 | 0.00 | 0.00 | 80 | 1015.9 |
| 20260505152013 | 48 | 112 | 1.0 | 3.0 | 0.00 | 0.00 | 0.00 | 81 | 1015.9 |
| 20260505151552 | 47 | 112 | 1.0 | 3.0 | 0.00 | 0.00 | 0.00 | 82 | 1015.7 |
| 20260505151521 | 47 | 92 | 1.0 | 3.0 | 0.00 | 0.00 | 0.00 | 82 | 1015.9 |
| 20260505151009 | 47 | 216 | 1.0 | 3.0 | 0.00 | 0.00 | 0.00 | 84 | 1015.8 |
| 20260505150507 | 46 | 111 | 1.0 | 2.0 | 0.00 | 0.00 | 0.00 | 84 | 1015.8 |
| 20260505140507 | 36 | 217 | 0.0 | 0.0 | 0.00 | 0.00 | 0.00 | 93 | 1015.4 |
| 20260505130111 | 30 | 0 | 0.0 | 0.0 | 0.00 | 0.00 | 0.00 | 91 | 1015.0 |
| 20260505125003 | 30 | 217 | 0.0 | 0.0 | 0.00 | 0.00 | 0.00 | 91 | 1014.9 |
| 20260505124602 | 30 | 0 | 0.0 | 0.0 | 0.00 | 0.00 | 0.00 | 91 | 1015.0 |
| 20260505124505 | 31 | 217 | 0.0 | 0.0 | 0.00 | 0.00 | 0.00 | 91 | 1014.9 |
| 20260505124004 | 31 | 217 | 0.0 | 0.0 | 0.00 | 0.00 | 0.00 | 91 | 1014.8 |
| 20260505123504 | 31 | 217 | 0.0 | 0.0 | 0.00 | 0.00 | 0.00 | 91 | 1014.9 |
| 20260505123055 | 31 | 0 | 0.0 | 0.0 | 0.00 | 0.00 | 0.00 | 90 | 1014.9 |
| 20260505123008 | 31 | 217 | 0.0 | 0.0 | 0.00 | 0.00 | 0.00 | 90 | 1014.8 |
| 20260505122504 | 31 | 217 | 0.0 | 0.0 | 0.00 | 0.00 | 0.00 | 90 | 1014.9 |
| 20260505122001 | 31 | 217 | 0.0 | 0.0 | 0.00 | 0.00 | 0.00 | 90 | 1014.9 |
| 20260505121556 | 31 | 0 | 0.0 | 0.0 | 0.00 | 0.00 | 0.00 | 90 | 1014.7 |
| 20260505121508 | 31 | 217 | 0.0 | 0.0 | 0.00 | 0.00 | 0.00 | 90 | 1014.9 |
| 20260505121002 | 31 | 217 | 0.0 | 0.0 | 0.00 | 0.00 | 0.00 | 90 | 1014.8 |
| 20260505120503 | 32 | 217 | 0.0 | 0.0 | 0.00 | 0.00 | 0.00 | 90 | 1014.7 |
| 20260505120104 | 32 | 0 | 0.0 | 0.0 | 0.00 | 0.00 | 0.00 | 90 | 1014.4 |
| 20260505120005 | 32 | 217 | 0.0 | 0.0 | 0.00 | 0.00 | 0.00 | 90 | 1014.7 |
| 20260505115502 | 32 | 217 | 0.0 | 0.0 | 0.00 | 0.00 | 0.00 | 90 | 1014.7 |
| 20260505115003 | 32 | 217 | 0.0 | 0.0 | 0.00 | 0.00 | 0.00 | 90 | 1014.7 |
| 20260505114552 | 32 | 0 | 0.0 | 0.0 | 0.00 | 0.00 | 0.00 | 90 | 1014.2 |
| 20260505114503 | 32 | 217 | 0.0 | 0.0 | 0.00 | 0.00 | 0.00 | 90 | 1014.6 |
| 20260505114003 | 33 | 217 | 0.0 | 0.0 | 0.00 | 0.00 | 0.00 | 90 | 1014.5 |
| 20260505113503 | 33 | 217 | 0.0 | 0.0 | 0.00 | 0.00 | 0.00 | 90 | 1014.5 |
| 20260505113055 | 33 | 0 | 0.0 | 0.0 | 0.00 | 0.00 | 0.00 | 90 | 1014.3 |
| 20260505113005 | 33 | 217 | 0.0 | 0.0 | 0.00 | 0.00 | 0.00 | 91 | 1014.6 |
| 20260505112506 | 33 | 217 | 0.0 | 0.0 | 0.00 | 0.00 | 0.00 | 90 | 1014.6 |
| 20260505112004 | 33 | 217 | 0.0 | 0.0 | 0.00 | 0.00 | 0.00 | 90 | 1014.6 |
| 20260505111548 | 33 | 0 | 0.0 | 0.0 | 0.00 | 0.00 | 0.00 | 90 | 1014.3 |
| 20260505111508 | 33 | 217 | 0.0 | 0.0 | 0.00 | 0.00 | 0.00 | 90 | 1014.6 |
| 20260505111008 | 34 | 217 | 0.0 | 0.0 | 0.00 | 0.00 | 0.00 | 90 | 1014.6 |
| 20260505110505 | 34 | 217 | 0.0 | 0.0 | 0.00 | 0.00 | 0.00 | 91 | 1014.5 |
| 20260505102006 | 35 | 217 | 0.0 | 0.0 | 0.00 | 0.00 | 0.00 | 89 | 1014.4 |
| 20260505101600 | 36 | 0 | 0.0 | 0.0 | 0.00 | 0.00 | 0.00 | 89 | 1014.1 |
| 20260505101506 | 36 | 217 | 0.0 | 0.0 | 0.00 | 0.00 | 0.00 | 89 | 1014.4 |
| 20260505101003 | 36 | 217 | 0.0 | 0.0 | 0.00 | 0.00 | 0.00 | 90 | 1014.4 |
| 20260505100503 | 36 | 217 | 0.0 | 0.0 | 0.00 | 0.00 | 0.00 | 90 | 1014.2 |
| 20260505100053 | 36 | 0 | 0.0 | 0.0 | 0.00 | 0.00 | 0.00 | 90 | 1014.1 |
| 20260505100017 | 36 | 217 | 0.0 | 0.0 | 0.00 | 0.00 | 0.00 | 90 | 1014.2 |
| 20260505095503 | 36 | 217 | 0.0 | 0.0 | 0.00 | 0.00 | 0.00 | 89 | 1014.2 |
| 20260505095006 | 36 | 217 | 0.0 | 0.0 | 0.00 | 0.00 | 0.00 | 89 | 1014.2 |
| 20260505094606 | 36 | 0 | 0.0 | 0.0 | 0.00 | 0.00 | 0.00 | 88 | 1014.2 |
| 20260505094006 | 36 | 217 | 0.0 | 0.0 | 0.00 | 0.00 | 0.00 | 88 | 1014.2 |
| 20260505093503 | 37 | 217 | 0.0 | 0.0 | 0.00 | 0.00 | 0.00 | 88 | 1014.2 |
| 20260505093058 | 37 | 0 | 0.0 | 0.0 | 0.00 | 0.00 | 0.00 | 89 | 1014.2 |
| 20260505093004 | 37 | 217 | 0.0 | 0.0 | 0.00 | 0.00 | 0.00 | 88 | 1014.2 |
| 20260505092503 | 37 | 217 | 0.0 | 0.0 | 0.00 | 0.00 | 0.00 | 89 | 1014.1 |
| 20260505092004 | 37 | 217 | 0.0 | 2.0 | 0.00 | 0.00 | 0.00 | 88 | 1014.1 |
| 20260505091605 | 37 | 0 | 0.0 | 2.0 | 0.00 | 0.00 | 0.00 | 87 | 1014.1 |